Monte Cimone, Italy

3:42 AM CEST on June 24, 2017 (GMT +0200)
Monte Cimone

Weather History for LIVC - March, 2013

Change the Weather History Date:

Tuesday, March 12, 2013

  Actual Average Record
Temperature  
Mean Temperature 32 °F -  
Max Temperature 33 °F 32 °F 44 °F (1999)
Min Temperature 30 °F 24 °F 12 °F (2006)
Degree Days  
Heating Degree Days 34    
Moisture  
Dew Point 30 °F    
Average Humidity 91    
Maximum Humidity 100    
Minimum Humidity 82    
Precipitation  
Precipitation 0.00 in 0.07 in - ()
Sea Level Pressure  
Sea Level Pressure 29.41 in    
Wind  
Wind Speed 9 mph ()    
Max Wind Speed 17 mph    
Max Gust Speed -    
Visibility 1.3 miles    
Events Fog    
Averages and records for this station are not official NWS values.
T = Trace of Precipitation, MM = Missing Value Source: Averaged Metar Reports

Daily Weather History Graph

Daily Weather History Graph

Search for Another Location

Airport or City:

Trip Planner

Search our weather history database for the weather conditions in past years. The results will help you decide how hot, cold, wet, or windy it might be!

Date:

Astronomy

Mar. 12, 2013 Rise Set
Actual Time 6:34 AM CET 6:19 PM CET
Civil Twilight 6:06 AM CET 6:48 PM CET
Nautical Twilight 5:32 AM CET 7:22 PM CET
Astronomical Twilight 4:58 AM CET 7:56 PM CET
Moon 6:29 AM CET (3/12) 7:21 PM CET (3/12)
Length of Visible Light 12h 42m
Length of Day
11h 44m
New Moon, 0% of the Moon is Illuminated
Mar 12
New Moon
Mar 19
First Quarter
Mar 27
Full
Apr 3
Last Quarter
Apr 10
New

Hourly Weather History & Observations

Time (CET) Temp. Windchill Dew Point Humidity Pressure Visibility Wind Dir Wind Speed Gust Speed Precip Events Conditions
12:55 AM 32.0 °F 26.4 °F 28.4 °F 87% 29.44 in 6.2 mi WSW 5.8 mph - N/A   Mostly Cloudy
1:00 AM 32 °F - 29 °F 82%  in 9 mi WSW 5.8 mph - -   Partly Cloudy
1:55 AM 32.0 °F 24.8 °F 28.4 °F 87% 29.44 in 1.9 mi WSW 8.1 mph - N/A   Scattered Clouds
2:55 AM 32.0 °F 25.6 °F 28.4 °F 87% 29.44 in 5.0 mi WSW 6.9 mph - N/A   Scattered Clouds
4:55 AM 30.2 °F 21.9 °F 28.4 °F 93% 29.42 in 1.9 mi WSW 9.2 mph - N/A   Scattered Clouds
5:55 AM 32.0 °F 24.2 °F 28.4 °F 87% 29.42 in 5.0 mi WSW 9.2 mph - N/A   Scattered Clouds
6:55 AM 32.0 °F 24.2 °F 30.2 °F 93% 29.42 in 0.0 mi WSW 9.2 mph - N/A Fog Fog
7:00 AM 32 °F - 30 °F 87%  in 0 mi WSW 9.2 mph - - Fog Heavy Fog
7:55 AM 32.0 °F 24.8 °F 30.2 °F 93% 29.42 in 0.0 mi West 8.1 mph - N/A Fog Fog
8:55 AM 32.0 °F 24.2 °F 30.2 °F 93% 29.42 in 0.0 mi West 9.2 mph - N/A Fog Fog
9:55 AM 32.0 °F 24.2 °F 28.4 °F 87% 29.42 in 0.0 mi West 9.2 mph - N/A Fog Light Freezing Fog
10:55 AM 32.0 °F 23.0 °F 30.2 °F 93% 29.42 in 0.0 mi West 11.5 mph - N/A Fog Light Freezing Fog
11:55 AM 32.0 °F 21.6 °F 30.2 °F 93% 29.42 in 0.0 mi West 15.0 mph - N/A Fog Fog
12:55 PM 32.0 °F 22.1 °F 30.2 °F 93% 29.42 in 0.0 mi WNW 13.8 mph - N/A Fog Fog
1:00 PM 32 °F - 29 °F 86%  in 0 mi WNW 13.8 mph - - Fog Heavy Fog
1:55 PM 32.0 °F 22.5 °F 30.2 °F 93% 29.42 in 0.0 mi WNW 12.7 mph - N/A Fog Fog
2:55 PM 32.0 °F 22.1 °F 30.2 °F 93% 29.42 in 0.0 mi West 13.8 mph - N/A Fog Fog
3:55 PM 32.0 °F 23.0 °F 30.2 °F 93% 29.42 in 0.1 mi West 11.5 mph - N/A Fog Fog
4:55 PM 32.0 °F 24.2 °F 28.4 °F 87% 29.39 in 6.2 mi WNW 9.2 mph - N/A   Scattered Clouds
5:55 PM 32.0 °F 21.6 °F 30.2 °F 93% 29.39 in 0.7 mi WSW 15.0 mph - N/A   Mist
6:55 PM 32.0 °F 22.1 °F 30.2 °F 93% 29.39 in 0.0 mi WSW 13.8 mph - N/A Fog Fog
7:00 PM 32 °F - 30 °F 91%  in 0 mi WSW 13.8 mph - - Fog Heavy Fog
7:55 PM 32.0 °F 22.5 °F 30.2 °F 93% 29.39 in 0.0 mi West 12.7 mph - N/A Fog Fog
8:55 PM 32.0 °F 20.8 °F 30.2 °F 93% 29.39 in 0.0 mi West 17.3 mph - N/A Fog Fog
9:55 PM 32.0 °F 21.6 °F 30.2 °F 93% 29.42 in 0.0 mi West 15.0 mph - N/A Fog Fog
10:55 PM 32.0 °F 21.6 °F 32.0 °F 100% 29.39 in 0.0 mi West 15.0 mph - N/A Fog Fog
11:55 PM 32.0 °F 22.1 °F 30.2 °F 93% 29.39 in 0.0 mi West 13.8 mph - N/A Fog Fog